Вернуться в каталог

STARLINK-35920

АктивенСвязьVLEO
NORAD 66623·PAYLOAD·🇺🇸 United States

Запущен Nov 23, 2025 с Vandenberg Space Force Base

Loading…

Ближайшие Пролёты (ближайшие 24 часа)

TLE

СвежийSource: CelesTrak SupGP

Эпоха: Sep 14, 2026, 21:31 UTC

1 66623C 25271G   26257.89701389 -.00080811  00000+0 -23912-2 0  2572
2 66623  53.1600 336.1319 0001140  80.9988 329.8253 15.34383725    18

Отслеживайте STARLINK-35920 в реальном времени с AllMySat

Download on the App Store